Location: Regensburg
(48.4565°N, 10.3217°E)
Time: 02:51:22
(UTC+01:00)

ISS - Pass Details

Date: 13 January 2018
Orbit: 402 x 407 km, 51.6° (Epoch: 18 January)

Event Time Altitude Azimuth Distance (km) Brightness Sun altitude
Exits shadow 05:33:54 31° 120° (ESE) 734 -2.0 -24.6°
Drops below altitude 10° 05:35:46 10° 117° (ESE) 1,464 -0.1 -24.3°
Sets 05:37:51 0° 116° (ESE) 2,322 1.2 -24.0°
